| time (UTC) | temp F | wind direction | speed knots | gust knots | rain 1hr in | rain 24hr in | rain mn in | humidity % | barometer mb |
| 20260506013528 | 48 | 180 | 0.0 | 1.7 | 0.00 | 0.00 | 0.00 | 48 | 1009.7 |
| 20260506012523 | 49 | 135 | 0.0 | 1.7 | 0.00 | 0.00 | 0.00 | 47 | 1009.7 |
| 20260506011550 | 49 | 278 | 0.9 | 3.5 | 0.00 | 0.00 | 0.00 | 46 | 1009.4 |
| 20260506010525 | 49 | 170 | 1.7 | 3.5 | 0.00 | 0.00 | 0.00 | 46 | 1009.6 |
| 20260506005518 | 49 | 204 | 0.9 | 1.7 | 0.00 | 0.00 | 0.00 | 45 | 1009.4 |
| 20260506004526 | 49 | 252 | 0.9 | 1.7 | 0.00 | 0.00 | 0.00 | 45 | 1009.3 |
| 20260506003521 | 49 | 265 | 2.6 | 5.2 | 0.00 | 0.00 | 0.00 | 44 | 1009.3 |
| 20260506002550 | 49 | 256 | 2.6 | 3.5 | 0.00 | 0.00 | 0.00 | 45 | 1009.2 |
| 20260506001523 | 50 | 218 | 2.6 | 4.3 | 0.00 | 0.00 | 0.00 | 44 | 1009.3 |
| 20260506000518 | 50 | 239 | 1.7 | 3.5 | 0.00 | 0.00 | 0.00 | 44 | 1009.1 |
| 20260505235549 | 50 | 320 | 2.6 | 4.3 | 0.00 | 0.00 | 0.00 | 44 | 1009.2 |
| 20260505234521 | 50 | 255 | 2.6 | 6.1 | 0.00 | 0.00 | 0.00 | 43 | 1009.3 |
| 20260505233531 | 50 | 259 | 5.2 | 10.4 | 0.00 | 0.00 | 0.00 | 43 | 1009.0 |
| 20260505232523 | 50 | 323 | 3.5 | 8.7 | 0.00 | 0.00 | 0.00 | 44 | 1009.1 |
| 20260505231518 | 50 | 265 | 3.5 | 9.6 | 0.00 | 0.00 | 0.00 | 44 | 1009.0 |
| 20260505230526 | 50 | 244 | 2.6 | 5.2 | 0.00 | 0.00 | 0.00 | 43 | 1008.8 |
| 20260505225542 | 50 | 234 | 2.6 | 4.3 | 0.00 | 0.00 | 0.00 | 42 | 1008.8 |
| 20260505224530 | 50 | 285 | 5.2 | 10.4 | 0.00 | 0.00 | 0.00 | 42 | 1008.9 |
| 20260505223524 | 50 | 260 | 3.5 | 6.1 | 0.00 | 0.00 | 0.00 | 43 | 1008.8 |
| 20260505222520 | 50 | 272 | 5.2 | 10.4 | 0.00 | 0.00 | 0.00 | 42 | 1008.6 |
| 20260505221546 | 50 | 273 | 4.3 | 7.0 | 0.00 | 0.00 | 0.00 | 44 | 1008.4 |
| 20260505220521 | 51 | 334 | 4.3 | 7.0 | 0.00 | 0.00 | 0.00 | 49 | 1008.3 |
| 20260505215529 | 50 | 276 | 4.3 | 9.6 | 0.00 | 0.00 | 0.00 | 54 | 1008.3 |
| 20260505214523 | 50 | 273 | 3.5 | 7.0 | 0.00 | 0.00 | 0.00 | 59 | 1008.3 |
| 20260505213518 | 50 | 245 | 3.5 | 7.8 | 0.00 | 0.00 | 0.00 | 61 | 1008.2 |
| 20260505212526 | 50 | 194 | 2.6 | 3.5 | 0.00 | 0.00 | 0.00 | 61 | 1008.1 |
| 20260505211522 | 50 | 267 | 4.3 | 7.0 | 0.00 | 0.00 | 0.00 | 60 | 1008.3 |
| 20260505210530 | 52 | 265 | 6.1 | 16.5 | 0.00 | 0.00 | 0.00 | 54 | 1008.3 |
| 20260505205525 | 53 | 325 | 6.1 | 17.4 | 0.00 | 0.00 | 0.00 | 51 | 1007.9 |
| 20260505204519 | 55 | 291 | 8.7 | 16.5 | 0.00 | 0.00 | 0.00 | 47 | 1007.4 |
| 20260505203534 | 56 | 279 | 7.8 | 14.8 | 0.00 | 0.00 | 0.00 | 46 | 1007.0 |
| 20260505202522 | 56 | 245 | 6.1 | 13.0 | 0.00 | 0.00 | 0.00 | 45 | 1006.8 |
| 20260505201517 | 56 | 300 | 7.0 | 13.0 | 0.00 | 0.00 | 0.00 | 43 | 1006.6 |
| 20260505200528 | 57 | 264 | 7.8 | 14.8 | 0.00 | 0.00 | 0.00 | 41 | 1006.4 |
| 20260505195521 | 57 | 272 | 7.0 | 10.4 | 0.00 | 0.00 | 0.00 | 41 | 1006.1 |
| 20260505194552 | 58 | 273 | 7.8 | 14.8 | 0.00 | 0.00 | 0.00 | 43 | 1006.0 |
| 20260505193546 | 58 | 254 | 7.8 | 11.3 | 0.00 | 0.00 | 0.00 | 45 | 1005.9 |
| 20260505192520 | 59 | 244 | 8.7 | 14.8 | 0.00 | 0.00 | 0.00 | 45 | 1005.8 |
| 20260505191530 | 59 | 265 | 7.0 | 11.3 | 0.00 | 0.00 | 0.00 | 48 | 1005.6 |
| 20260505190524 | 58 | 288 | 4.3 | 8.7 | 0.00 | 0.00 | 0.00 | 48 | 1005.6 |
| 20260505185520 | 58 | 290 | 5.2 | 11.3 | 0.00 | 0.00 | 0.00 | 49 | 1005.6 |
| 20260505184527 | 59 | 289 | 6.1 | 12.2 | 0.00 | 0.00 | 0.00 | 51 | 1005.6 |
| 20260505183544 | 59 | 246 | 6.1 | 13.0 | 0.00 | 0.00 | 0.00 | 54 | 1005.6 |
| 20260505182533 | 60 | 230 | 6.1 | 9.6 | 0.00 | 0.00 | 0.00 | 54 | 1005.3 |
| 20260505181525 | 60 | 249 | 7.8 | 13.9 | 0.00 | 0.00 | 0.00 | 55 | 1005.3 |
| 20260505180519 | 60 | 257 | 7.8 | 11.3 | 0.00 | 0.00 | 0.00 | 58 | 1005.1 |
| 20260505175527 | 60 | 245 | 5.2 | 13.0 | 0.00 | 0.00 | 0.00 | 60 | 1005.0 |
| 20260505174521 | 59 | 252 | 6.1 | 13.9 | 0.00 | 0.00 | 0.00 | 62 | 1004.9 |
| 20260505173531 | 60 | 262 | 7.0 | 11.3 | 0.00 | 0.00 | 0.00 | 63 | 1004.8 |
| 20260505172627 | 59 | 274 | 6.1 | 10.4 | 0.00 | 0.00 | 0.00 | 65 | 1004.6 |
| 20260505171519 | 59 | 255 | 7.0 | 11.3 | 0.00 | 0.00 | 0.00 | 65 | 1004.3 |
| 20260505170530 | 60 | 235 | 6.1 | 11.3 | 0.00 | 0.00 | 0.00 | 66 | 1004.4 |
| 20260505165544 | 60 | 256 | 6.1 | 11.3 | 0.00 | 0.00 | 0.00 | 67 | 1004.2 |
| 20260505164533 | 60 | 232 | 5.2 | 13.0 | 0.00 | 0.00 | 0.00 | 67 | 1004.2 |
| 20260505163526 | 61 | 280 | 7.8 | 13.0 | 0.00 | 0.00 | 0.00 | 67 | 1003.8 |
| 20260505162541 | 61 | 248 | 7.0 | 11.3 | 0.00 | 0.00 | 0.00 | 67 | 1003.7 |
| 20260505161529 | 62 | 259 | 12.2 | 20.0 | 0.00 | 0.00 | 0.00 | 66 | 1003.8 |
| 20260505160523 | 63 | 238 | 8.7 | 18.2 | 0.00 | 0.00 | 0.00 | 64 | 1003.6 |
| 20260505152531 | 65 | 219 | 10.4 | 15.6 | 0.00 | 0.00 | 0.00 | 61 | 1002.4 |
| 20260505151524 | 67 | 244 | 10.4 | 15.6 | 0.00 | 0.00 | 0.00 | 61 | 1001.9 |
| 20260505150521 | 65 | 243 | 10.4 | 14.8 | 0.00 | 0.00 | 0.00 | 63 | 1001.7 |
| 20260505140528 | 64 | 225 | 8.7 | 13.9 | 0.00 | 0.00 | 0.00 | 63 | 1001.9 |
| 20260505124525 | 64 | 204 | 7.8 | 13.0 | 0.00 | 0.00 | 0.00 | 68 | 1001.1 |
| 20260505123518 | 62 | 214 | 6.1 | 8.7 | 0.00 | 0.00 | 0.00 | 73 | 1001.1 |
| 20260505122525 | 60 | 195 | 4.3 | 7.0 | 0.00 | 0.00 | 0.00 | 75 | 1001.0 |
| 20260505121518 | 60 | 220 | 4.3 | 7.0 | 0.00 | 0.00 | 0.00 | 76 | 1001.2 |
| 20260505120527 | 59 | 174 | 2.6 | 3.5 | 0.00 | 0.00 | 0.00 | 77 | 1001.1 |
| 20260505115518 | 59 | 180 | 1.7 | 3.5 | 0.00 | 0.00 | 0.00 | 77 | 1001.2 |
| 20260505114527 | 58 | 190 | 3.5 | 5.2 | 0.00 | 0.00 | 0.00 | 77 | 1000.9 |
| 20260505113518 | 58 | 180 | 5.2 | 8.7 | 0.00 | 0.00 | 0.00 | 77 | 1000.9 |
| 20260505112528 | 58 | 173 | 5.2 | 9.6 | 0.00 | 0.00 | 0.00 | 77 | 1001.1 |
| 20260505111520 | 58 | 179 | 3.5 | 7.0 | 0.00 | 0.00 | 0.00 | 78 | 1000.9 |
| 20260505110526 | 58 | 179 | 4.3 | 6.1 | 0.00 | 0.00 | 0.00 | 79 | 1001.0 |
| 20260505101522 | 52 | 180 | 0.0 | 2.6 | 0.00 | 0.00 | 0.00 | 82 | 1000.4 |
| 20260505100529 | 51 | 0.0 | 0.0 | 0.00 | 0.00 | 0.00 | 80 | 1000.4 | |
| 20260505095524 | 52 | 0.0 | 0.0 | 0.00 | 0.00 | 0.00 | 79 | 1000.3 | |
| 20260505094519 | 52 | 0.0 | 0.0 | 0.00 | 0.00 | 0.00 | 77 | 1000.4 | |
| 20260505093528 | 53 | 94 | 0.9 | 1.7 | 0.00 | 0.00 | 0.00 | 76 | 1000.3 |
| 20260505092543 | 54 | 68 | 0.9 | 1.7 | 0.00 | 0.00 | 0.00 | 74 | 1000.5 |
| 20260505091541 | 56 | 75 | 0.9 | 1.7 | 0.00 | 0.00 | 0.00 | 72 | 1000.6 |
| 20260505090546 | 57 | 100 | 0.9 | 1.7 | 0.00 | 0.00 | 0.00 | 71 | 1000.8 |
| 20260505085522 | 58 | 0.0 | 0.9 | 0.00 | 0.00 | 0.00 | 71 | 1000.9 | |
| 20260505084531 | 58 | 85 | 0.9 | 1.7 | 0.00 | 0.00 | 0.00 | 72 | 1000.9 |
| 20260505083523 | 58 | 210 | 1.7 | 3.5 | 0.00 | 0.00 | 0.00 | 72 | 1000.7 |
| 20260505082517 | 58 | 180 | 2.6 | 4.3 | 0.00 | 0.00 | 0.00 | 71 | 1000.5 |
| 20260505081527 | 58 | 171 | 2.6 | 3.5 | 0.00 | 0.00 | 0.00 | 71 | 1000.7 |
| 20260505080521 | 58 | 187 | 3.5 | 7.8 | 0.00 | 0.00 | 0.00 | 71 | 1000.7 |
| 20260505075531 | 57 | 214 | 3.5 | 6.1 | 0.00 | 0.00 | 0.00 | 71 | 1000.7 |
| 20260505074547 | 57 | 216 | 3.5 | 6.1 | 0.00 | 0.00 | 0.00 | 71 | 1000.7 |
| 20260505073521 | 56 | 181 | 3.5 | 5.2 | 0.00 | 0.00 | 0.00 | 70 | 1000.8 |
| 20260505072531 | 55 | 182 | 1.7 | 3.5 | 0.00 | 0.00 | 0.00 | 68 | 1000.9 |
| 20260505071528 | 55 | 187 | 1.7 | 3.5 | 0.00 | 0.00 | 0.00 | 66 | 1000.9 |
| 20260505070521 | 55 | 185 | 1.7 | 2.6 | 0.00 | 0.00 | 0.00 | 65 | 1001.0 |
| 20260505065531 | 55 | 195 | 1.7 | 2.6 | 0.00 | 0.00 | 0.00 | 64 | 1000.9 |
| 20260505064525 | 55 | 172 | 1.7 | 3.5 | 0.00 | 0.00 | 0.00 | 63 | 1000.9 |
| 20260505063520 | 55 | 180 | 3.5 | 6.1 | 0.00 | 0.00 | 0.00 | 63 | 1001.0 |
| 20260505062531 | 55 | 187 | 2.6 | 4.3 | 0.00 | 0.00 | 0.00 | 61 | 1001.1 |
| 20260505061526 | 55 | 163 | 2.6 | 5.2 | 0.00 | 0.00 | 0.00 | 60 | 1001.1 |
| 20260505060522 | 55 | 186 | 2.6 | 3.5 | 0.00 | 0.00 | 0.00 | 59 | 1001.3 |
| 20260505055515 | 56 | 201 | 2.6 | 4.3 | 0.00 | 0.00 | 0.00 | 57 | 1001.2 |
| 20260505054528 | 56 | 170 | 4.3 | 5.2 | 0.00 | 0.00 | 0.00 | 56 | 1001.3 |
| 20260505053521 | 56 | 176 | 3.5 | 6.1 | 0.00 | 0.00 | 0.00 | 54 | 1001.3 |
| 20260505052531 | 57 | 183 | 3.5 | 5.2 | 0.00 | 0.00 | 0.00 | 52 | 1001.3 |
| 20260505051525 | 58 | 169 | 3.5 | 5.2 | 0.00 | 0.00 | 0.00 | 51 | 1001.5 |
| 20260505050521 | 58 | 186 | 5.2 | 7.0 | 0.00 | 0.00 | 0.00 | 51 | 1001.6 |
| 20260505041529 | 58 | 193 | 5.2 | 10.4 | 0.00 | 0.00 | 0.00 | 50 | 1001.9 |
| 20260505040525 | 58 | 191 | 4.3 | 6.1 | 0.00 | 0.00 | 0.00 | 48 | 1002.0 |
| 20260505035551 | 58 | 176 | 3.5 | 7.0 | 0.00 | 0.00 | 0.00 | 48 | 1002.0 |
| 20260505034526 | 59 | 181 | 2.6 | 3.5 | 0.00 | 0.00 | 0.00 | 46 | 1002.1 |
| 20260505033531 | 59 | 181 | 2.6 | 3.5 | 0.00 | 0.00 | 0.00 | 45 | 1002.2 |
| 20260505032525 | 60 | 175 | 3.5 | 7.0 | 0.00 | 0.00 | 0.00 | 44 | 1002.3 |
| 20260505031518 | 60 | 180 | 2.6 | 4.3 | 0.00 | 0.00 | 0.00 | 43 | 1002.2 |
| 20260505030528 | 61 | 173 | 3.5 | 4.3 | 0.00 | 0.00 | 0.00 | 42 | 1002.4 |
| 20260505025603 | 61 | 171 | 1.7 | 3.5 | 0.00 | 0.00 | 0.00 | 42 | 1002.4 |
| 20260505024529 | 61 | 169 | 2.6 | 6.1 | 0.00 | 0.00 | 0.00 | 41 | 1002.6 |
| 20260505023526 | 63 | 188 | 1.7 | 3.5 | 0.00 | 0.00 | 0.00 | 40 | 1002.5 |
| 20260505022519 | 64 | 212 | 3.5 | 7.0 | 0.00 | 0.00 | 0.00 | 35 | 1002.5 |
| 20260505021530 | 64 | 225 | 5.2 | 9.6 | 0.00 | 0.00 | 0.00 | 36 | 1002.6 |
| 20260505020523 | 63 | 217 | 6.1 | 10.4 | 0.00 | 0.00 | 0.00 | 39 | 1002.6 |
| 20260505015519 | 63 | 212 | 3.5 | 7.0 | 0.00 | 0.00 | 0.00 | 41 | 1002.6 |
| 20260505014530 | 64 | 213 | 2.6 | 7.0 | 0.00 | 0.00 | 0.00 | 38 | 1002.5 |